Time,TemperatureF,DewpointF,PressureIn,WindDirection,WindDirectionDegrees,WindSpeedMPH,WindSpeedGustMPH,Humidity,HourlyPrecipIn,Conditions,Clouds,dailyrainin,SoftwareType,DateUTC
2013-03-30 00:02:00,41.0,34.0,30.26,NNE,32,0.0,0.0,77,0.00,,,0.00,,2013-03-30 04:02:00,
2013-03-30 00:12:00,41.0,34.0,30.26,NNE,32,0.0,0.0,77,0.00,,,0.00,,2013-03-30 04:12:00,
2013-03-30 00:23:00,39.0,32.0,30.26,NE,38,0.0,4.0,77,0.00,,,0.00,,2013-03-30 04:23:00,
2013-03-30 00:32:00,39.0,33.0,30.27,NE,44,0.0,2.0,78,0.00,,,0.00,,2013-03-30 04:32:00,
2013-03-30 00:42:00,39.0,33.0,30.27,NE,44,0.0,2.0,78,0.00,,,0.00,,2013-03-30 04:42:00,
2013-03-30 00:52:00,39.0,32.0,30.26,NE,44,0.0,0.0,77,0.00,,,0.00,,2013-03-30 04:52:00,
2013-03-30 01:02:00,38.0,32.0,30.26,NE,44,0.0,0.0,80,0.00,,,0.00,,2013-03-30 05:02:00,
2013-03-30 01:12:00,38.0,32.0,30.26,NE,44,0.0,0.0,80,0.00,,,0.00,,2013-03-30 05:12:00,
2013-03-30 01:22:00,37.0,32.0,30.26,NE,44,0.0,0.0,82,0.00,,,0.00,,2013-03-30 05:22:00,
2013-03-30 01:32:00,37.0,32.0,30.25,NE,44,0.0,0.0,81,0.00,,,0.00,,2013-03-30 05:32:00,
2013-03-30 01:42:00,37.0,32.0,30.25,NE,44,0.0,0.0,81,0.00,,,0.00,,2013-03-30 05:42:00,
2013-03-30 01:52:00,36.0,32.0,30.25,NE,44,0.0,0.0,84,0.00,,,0.00,,2013-03-30 05:52:00,
2013-03-30 02:02:00,35.0,31.0,30.25,NE,44,0.0,1.0,85,0.00,,,0.00,,2013-03-30 06:02:00,
2013-03-30 02:11:00,35.0,31.0,30.25,NE,44,0.0,1.0,85,0.00,,,0.00,,2013-03-30 06:11:00,
2013-03-30 02:22:00,36.0,31.0,30.25,ENE,59,0.0,1.0,82,0.00,,,0.00,,2013-03-30 06:22:00,
2013-03-30 02:32:00,37.0,31.0,30.24,ENE,60,0.0,1.0,79,0.00,,,0.00,,2013-03-30 06:32:00,
2013-03-30 02:42:00,37.0,31.0,30.24,ENE,60,0.0,1.0,79,0.00,,,0.00,,2013-03-30 06:42:00,
2013-03-30 02:52:00,38.0,31.0,30.24,ENE,60,0.0,0.0,75,0.00,,,0.00,,2013-03-30 06:52:00,
2013-03-30 03:02:00,36.0,29.0,30.25,East,95,0.0,1.0,77,0.00,,,0.00,,2013-03-30 07:02:00,
2013-03-30 03:12:00,36.0,29.0,30.25,East,95,0.0,1.0,77,0.00,,,0.00,,2013-03-30 07:12:00,
2013-03-30 03:22:00,35.0,30.0,30.24,East,95,0.0,0.0,81,0.00,,,0.00,,2013-03-30 07:22:00,
2013-03-30 03:32:00,34.0,28.0,30.25,East,95,0.0,0.0,80,0.00,,,0.00,,2013-03-30 07:32:00,
2013-03-30 03:42:00,34.0,28.0,30.25,East,95,0.0,0.0,80,0.00,,,0.00,,2013-03-30 07:42:00,
2013-03-30 03:52:00,34.0,29.0,30.24,East,95,0.0,0.0,81,0.00,,,0.00,,2013-03-30 07:52:00,
2013-03-30 04:02:00,34.0,28.0,30.24,East,95,0.0,0.0,80,0.00,,,0.00,,2013-03-30 08:02:00,
2013-03-30 04:12:00,34.0,28.0,30.24,East,95,0.0,0.0,80,0.00,,,0.00,,2013-03-30 08:12:00,
2013-03-30 04:22:00,35.0,28.0,30.24,East,95,0.0,0.0,74,0.00,,,0.00,,2013-03-30 08:22:00,
2013-03-30 04:32:00,36.0,28.0,30.22,East,95,0.0,0.0,73,0.00,,,0.00,,2013-03-30 08:32:00,
2013-03-30 04:42:00,36.0,28.0,30.22,East,95,0.0,0.0,73,0.00,,,0.00,,2013-03-30 08:42:00,
2013-03-30 04:52:00,35.0,28.0,30.22,East,95,0.0,0.0,74,0.00,,,0.00,,2013-03-30 08:52:00,
2013-03-30 05:02:00,33.0,27.0,30.22,East,95,0.0,0.0,78,0.00,,,0.00,,2013-03-30 09:02:00,
2013-03-30 05:12:00,33.0,27.0,30.22,East,95,0.0,0.0,78,0.00,,,0.00,,2013-03-30 09:12:00,
2013-03-30 05:22:00,33.0,27.0,30.22,East,95,0.0,1.0,77,0.00,,,0.00,,2013-03-30 09:22:00,
2013-03-30 05:43:00,33.0,27.0,30.22,East,95,0.0,0.0,79,0.00,,,0.00,,2013-03-30 09:43:00,
2013-03-30 05:53:00,33.0,27.0,30.22,East,95,0.0,0.0,78,0.00,,,0.00,,2013-03-30 09:53:00,
2013-03-30 06:02:00,33.0,28.0,30.23,East,96,0.0,1.0,80,0.00,,,0.00,,2013-03-30 10:02:00,
2013-03-30 06:13:00,33.0,28.0,30.23,East,96,0.0,1.0,80,0.00,,,0.00,,2013-03-30 10:13:00,
2013-03-30 06:23:00,32.0,27.0,30.23,East,101,0.0,0.0,80,0.00,,,0.00,,2013-03-30 10:23:00,
2013-03-30 06:33:00,33.0,27.0,30.24,SSE,150,0.0,2.0,79,0.00,,,0.00,,2013-03-30 10:33:00,
2013-03-30 06:42:00,33.0,27.0,30.24,SSE,150,0.0,2.0,79,0.00,,,0.00,,2013-03-30 10:42:00,
2013-03-30 06:52:00,34.0,28.0,30.24,SSE,155,0.0,1.0,78,0.00,,,0.00,,2013-03-30 10:52:00,
2013-03-30 07:03:00,34.0,27.0,30.23,SSE,148,0.0,3.0,76,0.00,,,0.00,,2013-03-30 11:03:00,
2013-03-30 07:12:00,34.0,27.0,30.23,SSE,148,0.0,3.0,76,0.00,,,0.00,,2013-03-30 11:12:00,
2013-03-30 07:22:00,35.0,27.0,30.22,SSE,148,0.0,3.0,72,0.00,,,0.00,,2013-03-30 11:22:00,
2013-03-30 07:33:00,35.0,27.0,30.22,SSE,148,0.0,3.0,72,0.00,,,0.00,,2013-03-30 11:33:00,
2013-03-30 07:42:00,35.0,27.0,30.22,SSE,148,0.0,3.0,72,0.00,,,0.00,,2013-03-30 11:42:00,
2013-03-30 07:52:00,35.0,27.0,30.22,SE,138,1.0,4.0,73,0.00,,,0.00,,2013-03-30 11:52:00,
2013-03-30 08:02:00,35.0,27.0,30.22,SE,138,1.0,4.0,73,0.00,,,0.00,,2013-03-30 12:02:00,
2013-03-30 08:12:00,35.0,27.0,30.22,SE,138,1.0,4.0,73,0.00,,,0.00,,2013-03-30 12:12:00,
2013-03-30 08:22:00,35.0,28.0,30.21,SE,128,0.0,3.0,75,0.00,,,0.00,,2013-03-30 12:22:00,
2013-03-30 08:32:00,35.0,29.0,30.22,SE,129,0.0,1.0,77,0.00,,,0.00,,2013-03-30 12:32:00,
2013-03-30 08:42:00,35.0,29.0,30.22,SE,129,0.0,1.0,77,0.00,,,0.00,,2013-03-30 12:42:00,
2013-03-30 08:52:00,34.0,28.0,30.22,SSE,155,1.0,4.0,78,0.00,,,0.00,,2013-03-30 12:52:00,
2013-03-30 09:02:00,35.0,29.0,30.22,SSE,160,1.0,4.0,79,0.00,,,0.00,,2013-03-30 13:02:00,
2013-03-30 09:12:00,35.0,29.0,30.22,SSE,160,1.0,4.0,79,0.00,,,0.00,,2013-03-30 13:12:00,
2013-03-30 09:22:00,36.0,30.0,30.22,SSE,157,0.0,2.0,80,0.00,,,0.00,,2013-03-30 13:22:00,
2013-03-30 09:32:00,37.0,32.0,30.21,SSE,153,1.0,3.0,82,0.00,,,0.00,,2013-03-30 13:32:00,
2013-03-30 09:42:00,37.0,32.0,30.21,SSE,153,1.0,3.0,82,0.00,,,0.00,,2013-03-30 13:42:00,
2013-03-30 09:52:00,41.0,35.0,30.21,South,175,1.0,4.0,79,0.00,,,0.00,,2013-03-30 13:52:00,
2013-03-30 10:02:00,43.0,36.0,30.20,South,178,2.0,6.0,75,0.00,,,0.00,,2013-03-30 14:02:00,
2013-03-30 10:11:00,43.0,36.0,30.20,South,178,2.0,6.0,75,0.00,,,0.00,,2013-03-30 14:11:00,
2013-03-30 10:23:00,44.0,37.0,30.20,SSW,198,2.0,6.0,75,0.00,,,0.00,,2013-03-30 14:23:00,
2013-03-30 10:32:00,45.0,37.0,30.19,SSE,168,2.0,7.0,72,0.00,,,0.00,,2013-03-30 14:32:00,
2013-03-30 10:42:00,45.0,37.0,30.19,SSE,168,2.0,7.0,72,0.00,,,0.00,,2013-03-30 14:42:00,
2013-03-30 10:52:00,46.0,37.0,30.19,SSW,194,2.0,6.0,72,0.00,,,0.00,,2013-03-30 14:52:00,
2013-03-30 11:02:00,47.0,38.0,30.18,South,184,3.0,9.0,70,0.00,,,0.00,,2013-03-30 15:02:00,
2013-03-30 11:12:00,47.0,38.0,30.18,South,184,3.0,9.0,70,0.00,,,0.00,,2013-03-30 15:12:00,
2013-03-30 11:22:00,49.0,38.0,30.18,SSW,196,3.0,8.0,65,0.00,,,0.00,,2013-03-30 15:22:00,
2013-03-30 11:33:00,50.0,38.0,30.17,SSW,194,3.0,8.0,64,0.00,,,0.00,,2013-03-30 15:33:00,
2013-03-30 11:43:00,50.0,38.0,30.17,SSW,194,3.0,8.0,64,0.00,,,0.00,,2013-03-30 15:43:00,
2013-03-30 11:52:00,51.0,36.0,30.16,SSW,196,5.0,10.0,57,0.00,,,0.00,,2013-03-30 15:52:00,
2013-03-30 12:03:00,52.0,37.0,30.16,SSE,168,6.0,10.0,57,0.00,,,0.00,,2013-03-30 16:03:00,
2013-03-30 12:13:00,53.0,37.0,30.16,SSW,192,5.0,9.0,55,0.00,,,0.00,,2013-03-30 16:13:00,
2013-03-30 12:23:00,53.0,37.0,30.16,SSW,192,5.0,9.0,55,0.00,,,0.00,,2013-03-30 16:23:00,
2013-03-30 12:33:00,53.0,37.0,30.16,SSW,194,5.0,9.0,54,0.00,,,0.00,,2013-03-30 16:33:00,
2013-03-30 12:43:00,53.0,37.0,30.16,SSW,194,5.0,9.0,54,0.00,,,0.00,,2013-03-30 16:43:00,
2013-03-30 12:52:00,54.0,37.0,30.15,SSW,205,3.0,10.0,53,0.00,,,0.00,,2013-03-30 16:52:00,
2013-03-30 13:02:00,54.0,35.0,30.15,SSW,199,3.0,7.0,49,0.00,,,0.00,,2013-03-30 17:02:00,
2013-03-30 13:13:00,54.0,35.0,30.15,SSW,199,3.0,7.0,49,0.00,,,0.00,,2013-03-30 17:13:00,
2013-03-30 13:22:00,54.0,35.0,30.14,South,189,3.0,10.0,49,0.00,,,0.00,,2013-03-30 17:22:00,
2013-03-30 13:32:00,55.0,37.0,30.13,SW,216,4.0,12.0,50,0.00,,,0.00,,2013-03-30 17:32:00,
2013-03-30 13:42:00,55.0,37.0,30.13,SW,216,4.0,12.0,50,0.00,,,0.00,,2013-03-30 17:42:00,
2013-03-30 13:52:00,55.0,37.0,30.13,SSW,202,5.0,9.0,50,0.00,,,0.00,,2013-03-30 17:52:00,
2013-03-30 14:03:00,55.0,39.0,30.12,SSW,196,3.0,7.0,54,0.00,,,0.00,,2013-03-30 18:03:00,
2013-03-30 14:12:00,55.0,37.0,30.11,South,182,4.0,11.0,50,0.00,,,0.00,,2013-03-30 18:12:00,
2013-03-30 14:22:00,55.0,37.0,30.11,South,182,4.0,11.0,50,0.00,,,0.00,,2013-03-30 18:22:00,
2013-03-30 14:32:00,55.0,37.0,30.10,SSW,204,5.0,10.0,50,0.00,,,0.00,,2013-03-30 18:32:00,
2013-03-30 14:42:00,55.0,37.0,30.10,SSW,204,5.0,10.0,50,0.00,,,0.00,,2013-03-30 18:42:00,
2013-03-30 14:53:00,54.0,36.0,30.09,WSW,237,3.0,8.0,51,0.00,,,0.00,,2013-03-30 18:53:00,
2013-03-30 15:03:00,55.0,38.0,30.08,SSW,196,2.0,7.0,53,0.00,,,0.00,,2013-03-30 19:03:00,
2013-03-30 15:13:00,55.0,38.0,30.08,SSW,196,2.0,7.0,53,0.00,,,0.00,,2013-03-30 19:13:00,
2013-03-30 15:22:00,55.0,37.0,30.08,South,184,6.0,11.0,50,0.00,,,0.00,,2013-03-30 19:22:00,
2013-03-30 15:32:00,55.0,38.0,30.06,WSW,238,5.0,10.0,52,0.00,,,0.00,,2013-03-30 19:32:00,
2013-03-30 15:42:00,55.0,38.0,30.06,WSW,238,5.0,10.0,52,0.00,,,0.00,,2013-03-30 19:42:00,
2013-03-30 15:52:00,55.0,37.0,30.06,SSW,200,4.0,9.0,50,0.00,,,0.00,,2013-03-30 19:52:00,
2013-03-30 16:02:00,55.0,36.0,30.06,SSW,196,4.0,7.0,49,0.00,,,0.00,,2013-03-30 20:02:00,
2013-03-30 16:12:00,55.0,36.0,30.06,SSW,196,4.0,7.0,49,0.00,,,0.00,,2013-03-30 20:12:00,
2013-03-30 16:22:00,54.0,35.0,30.05,South,190,4.0,9.0,49,0.00,,,0.00,,2013-03-30 20:22:00,
2013-03-30 16:32:00,55.0,37.0,30.04,SSW,209,3.0,7.0,51,0.00,,,0.00,,2013-03-30 20:32:00,
2013-03-30 16:42:00,55.0,37.0,30.04,SSW,209,3.0,7.0,51,0.00,,,0.00,,2013-03-30 20:42:00,
2013-03-30 16:52:00,55.0,37.0,30.03,SSW,193,3.0,11.0,51,0.00,,,0.00,,2013-03-30 20:52:00,
2013-03-30 17:02:00,55.0,37.0,30.03,SSW,194,4.0,8.0,51,0.00,,,0.00,,2013-03-30 21:02:00,
2013-03-30 17:12:00,55.0,37.0,30.03,SSW,194,4.0,8.0,51,0.00,,,0.00,,2013-03-30 21:12:00,
2013-03-30 17:22:00,55.0,37.0,30.03,SSW,194,4.0,8.0,51,0.00,,,0.00,,2013-03-30 21:22:00,
2013-03-30 17:34:00,55.0,37.0,30.02,SSW,210,5.0,12.0,50,0.00,,,0.00,,2013-03-30 21:34:00,
2013-03-30 17:43:00,55.0,37.0,30.02,SSW,210,5.0,12.0,50,0.00,,,0.00,,2013-03-30 21:43:00,
2013-03-30 17:53:00,54.0,36.0,30.02,SW,221,5.0,9.0,51,0.00,,,0.00,,2013-03-30 21:53:00,
2013-03-30 18:03:00,54.0,36.0,30.01,SSW,202,4.0,12.0,51,0.00,,,0.00,,2013-03-30 22:03:00,
2013-03-30 18:13:00,54.0,36.0,30.01,SSW,202,4.0,12.0,51,0.00,,,0.00,,2013-03-30 22:13:00,
2013-03-30 18:23:00,54.0,37.0,30.01,SSW,212,6.0,9.0,52,0.00,,,0.00,,2013-03-30 22:23:00,
2013-03-30 18:33:00,53.0,36.0,30.00,SSW,204,5.0,8.0,53,0.00,,,0.00,,2013-03-30 22:33:00,
2013-03-30 18:43:00,53.0,36.0,30.00,SSW,204,5.0,8.0,53,0.00,,,0.00,,2013-03-30 22:43:00,
2013-03-30 18:53:00,53.0,38.0,29.99,SSW,200,5.0,8.0,57,0.00,,,0.00,,2013-03-30 22:53:00,
2013-03-30 19:02:00,52.0,38.0,29.98,SSW,207,4.0,7.0,59,0.00,,,0.00,,2013-03-30 23:02:00,
2013-03-30 19:12:00,52.0,38.0,29.98,SSW,207,4.0,7.0,59,0.00,,,0.00,,2013-03-30 23:12:00,
2013-03-30 19:22:00,52.0,39.0,29.97,South,173,2.0,6.0,60,0.00,,,0.00,,2013-03-30 23:22:00,
2013-03-30 19:32:00,52.0,39.0,29.97,South,185,3.0,7.0,60,0.00,,,0.00,,2013-03-30 23:32:00,
2013-03-30 19:42:00,52.0,39.0,29.97,South,185,3.0,7.0,60,0.00,,,0.00,,2013-03-30 23:42:00,
2013-03-30 19:52:00,51.0,39.0,29.97,SSW,210,1.0,5.0,63,0.00,,,0.00,,2013-03-30 23:52:00,
2013-03-30 20:02:00,50.0,39.0,29.97,WSW,245,0.0,3.0,65,0.00,,,0.00,,2013-03-31 00:02:00,
2013-03-30 20:12:00,50.0,39.0,29.97,WSW,245,0.0,3.0,65,0.00,,,0.00,,2013-03-31 00:12:00,
2013-03-30 20:22:00,49.0,39.0,29.97,WSW,249,0.0,3.0,69,0.00,,,0.00,,2013-03-31 00:22:00,
2013-03-30 20:32:00,48.0,39.0,29.97,WSW,249,0.0,1.0,70,0.00,,,0.00,,2013-03-31 00:32:00,
2013-03-30 20:42:00,48.0,39.0,29.97,WSW,249,0.0,1.0,70,0.00,,,0.00,,2013-03-31 00:42:00,
2013-03-30 20:52:00,48.0,39.0,29.96,WSW,249,0.0,0.0,71,0.00,,,0.00,,2013-03-31 00:52:00,
2013-03-30 21:02:00,47.0,38.0,29.96,WSW,249,0.0,0.0,72,0.00,,,0.00,,2013-03-31 01:02:00,
2013-03-30 21:12:00,47.0,38.0,29.96,WSW,249,0.0,0.0,72,0.00,,,0.00,,2013-03-31 01:12:00,
2013-03-30 21:22:00,46.0,39.0,29.96,WSW,249,0.0,2.0,75,0.00,,,0.00,,2013-03-31 01:22:00,
2013-03-30 21:32:00,45.0,38.0,29.96,WSW,249,0.0,0.0,76,0.00,,,0.00,,2013-03-31 01:32:00,
2013-03-30 21:42:00,45.0,38.0,29.96,WSW,249,0.0,0.0,76,0.00,,,0.00,,2013-03-31 01:42:00,
2013-03-30 21:52:00,45.0,38.0,29.96,WSW,249,0.0,0.0,77,0.00,,,0.00,,2013-03-31 01:52:00,
2013-03-30 22:02:00,45.0,39.0,29.96,WSW,249,0.0,0.0,78,0.00,,,0.00,,2013-03-31 02:02:00,
2013-03-30 22:13:00,45.0,39.0,29.96,WSW,249,0.0,0.0,78,0.00,,,0.00,,2013-03-31 02:13:00,
2013-03-30 22:22:00,45.0,39.0,29.96,WSW,249,0.0,0.0,78,0.00,,,0.00,,2013-03-31 02:22:00,
2013-03-30 22:32:00,45.0,39.0,29.96,WSW,249,0.0,2.0,78,0.00,,,0.00,,2013-03-31 02:32:00,
2013-03-30 22:42:00,45.0,39.0,29.96,WSW,249,0.0,2.0,78,0.00,,,0.00,,2013-03-31 02:42:00,
2013-03-30 22:52:00,46.0,40.0,29.95,WSW,249,0.0,0.0,78,0.00,,,0.00,,2013-03-31 02:52:00,
2013-03-30 23:02:00,46.0,39.0,29.95,WSW,249,0.0,0.0,75,0.00,,,0.00,,2013-03-31 03:02:00,
2013-03-30 23:12:00,46.0,39.0,29.95,WSW,249,0.0,0.0,75,0.00,,,0.00,,2013-03-31 03:12:00,
2013-03-30 23:22:00,46.0,39.0,29.95,WSW,249,0.0,0.0,76,0.00,,,0.00,,2013-03-31 03:22:00,
2013-03-30 23:33:00,46.0,39.0,29.95,WSW,249,0.0,1.0,76,0.00,,,0.00,,2013-03-31 03:33:00,
2013-03-30 23:43:00,46.0,39.0,29.95,WSW,249,0.0,1.0,76,0.00,,,0.00,,2013-03-31 03:43:00,
2013-03-30 23:54:00,46.0,39.0,29.94,SSW,211,1.0,4.0,76,0.00,,,0.00,,2013-03-31 03:54:00,